Total_Precipitation_Accumulation
1.46 1.44 1.47 1.65 1.66 1.73 1.72 1.47 1.24 1.31 1.32 1.27 1.11 1.07 1.15 1.15 1.16 1.31 1.42 1.33 1.29 1.41 1.60 1.70 1.73 1.69 1.67 1.69 1.69 1.72 1.67 1.59 1.50 1.40 1.23 1.09 1.01 0.97 0.97 0.96 0.96 0.92 0.93
1.66 1.71 1.73 1.79 1.80 1.96 2.00 1.74 1.57 1.66 1.60 1.54 1.34 1.25 1.24 1.32 1.32 1.40 1.48 1.43 1.28 1.23 1.38 1.63 1.78 1.83 1.88 1.90 1.82 1.75 1.72 1.68 1.63 1.50 1.34 1.22 1.15 1.08 1.00 1.00 1.02 0.98 0.93
1.98 2.09 2.15 2.08 2.01 1.99 2.04 1.97 1.85 1.82 1.79 1.61 1.49 1.47 1.48 1.37 1.30 1.45 1.56 1.60 1.50 1.41 1.46 1.52 1.64 1.81 2.05 2.15 2.06 1.95 1.87 1.81 1.72 1.62 1.52 1.39 1.26 1.20 1.13 1.08 1.06 1.01 0.96
2.16 2.39 2.44 2.25 2.12 2.05 2.15 2.23 2.12 2.09 2.06 1.98 1.72 1.53 1.56 1.54 1.44 1.46 1.49 1.56 1.68 1.62 1.59 1.53 1.55 1.66 1.84 1.97 2.08 2.13 2.09 2.00 1.91 1.80 1.70 1.59 1.50 1.37 1.24 1.17 1.11 1.06 1.03
2.20 2.42 2.53 2.50 2.28 2.25 2.35 2.27 2.44 2.34 2.32 2.14 1.81 1.62 1.47 1.38 1.42 1.41 1.43 1.48 1.53 1.54 1.58 1.60 1.60 1.64 1.76 1.87 1.95 2.04 2.07 2.07 1.98 1.85 1.78 1.73 1.61 1.45 1.34 1.29 1.22 1.16 1.14
2.34 2.56 2.63 2.68 2.55 2.57 2.66 2.63 2.63 2.47 2.27 2.12 1.85 1.69 1.46 1.25 1.23 1.30 1.31 1.30 1.27 1.28 1.34 1.41 1.52 1.52 1.60 1.67 1.78 1.99 2.26 2.31 2.18 2.00 1.90 1.80 1.68 1.50 1.38 1.36 1.32 1.26 1.23
3.01 3.15 3.09 3.00 2.83 2.77 2.77 2.70 2.58 2.49 2.35 2.30 2.18 1.90 1.55 1.24 1.11 1.08 1.14 1.17 1.12 1.12 1.17 1.27 1.34 1.36 1.41 1.44 1.51 1.71 2.07 2.31 2.27 2.16 2.03 1.90 1.79 1.68 1.58 1.51 1.47 1.41 1.32
3.61 3.56 3.49 3.24 3.01 2.83 2.69 2.56 2.44 2.34 2.21 2.18 2.19 2.12 1.82 1.51 1.19 0.98 1.06 1.09 1.08 1.11 1.12 1.10 1.14 1.16 1.14 1.23 1.36 1.51 1.69 1.83 1.99 2.14 2.11 1.95 1.84 1.78 1.74 1.72 1.68 1.59 1.49
3.43 3.34 3.26 3.14 2.93 2.75 2.59 2.55 2.48 2.41 2.29 2.25 2.25 2.31 2.14 1.76 1.35 1.09 0.99 1.02 1.07 1.11 1.14 1.13 1.07 1.10 1.14 1.17 1.22 1.41 1.55 1.56 1.66 1.82 1.99 1.97 1.85 1.82 1.81 1.82 1.81 1.76 1.71
3.17 3.03 3.04 3.00 2.85 2.67 2.49 2.35 2.31 2.32 2.37 2.29 2.17 2.01 1.89 1.69 1.57 1.37 1.18 1.08 1.05 1.06 1.07 1.06 1.03 1.05 1.13 1.22 1.33 1.43 1.45 1.41 1.45 1.51 1.58 1.67 1.73 1.75 1.77 1.77 1.80 1.85 1.87
2.92 2.77 2.75 2.65 2.47 2.33 2.19 2.06 1.99 2.00 2.05 2.07 2.05 1.97 1.90 1.77 1.62 1.49 1.37 1.25 1.17 1.08 1.03 1.02 1.02 1.05 1.10 1.14 1.22 1.29 1.34 1.27 1.27 1.31 1.37 1.46 1.53 1.62 1.73 1.82 1.92 2.01 2.08
2.75 2.50 2.26 2.17 2.13 1.97 1.75 1.62 1.57 1.57 1.61 1.68 1.78 1.79 1.72 1.69 1.65 1.62 1.51 1.37 1.31 1.25 1.16 1.13 1.08 1.06 1.11 1.07 1.07 1.23 1.21 1.19 1.17 1.16 1.19 1.26 1.30 1.37 1.48 1.63 1.80 1.97 2.10
2.30 2.04 1.83 1.71 1.67 1.65 1.54 1.41 1.34 1.26 1.25 1.33 1.39 1.50 1.55 1.53 1.49 1.55 1.62 1.57 1.43 1.31 1.18 1.11 1.00 0.94 0.95 1.03 1.12 1.13 1.05 1.05 1.02 1.00 1.02 1.11 1.19 1.22 1.21 1.29 1.41 1.58 1.71
1.82 1.59 1.44 1.33 1.22 1.13 1.10 1.12 1.16 1.14 1.12 1.17 1.19 1.30 1.39 1.40 1.41 1.44 1.48 1.60 1.60 1.42 1.24 1.11 0.99 0.91 0.91 0.94 1.01 0.90 0.88 0.90 0.87 0.90 0.93 0.98 1.05 1.17 1.17 1.12 1.08 1.13 1.21
1.33 1.20 1.11 1.06 1.00 0.95 0.93 0.93 0.96 1.00 1.01 1.03 1.06 1.13 1.20 1.19 1.22 1.28 1.34 1.43 1.52 1.47 1.34 1.14 1.09 1.05 1.01 0.97 1.04 0.90 0.89 0.86 0.83 0.91 0.94 0.99 1.06 1.19 1.25 1.15 1.05 0.96 0.93
1.03 0.95 0.91 0.89 0.86 0.84 0.84 0.89 0.88 0.88 0.90 0.89 0.87 0.87 0.89 0.90 0.95 0.99 1.07 1.16 1.27 1.35 1.32 1.11 1.04 1.09 1.06 0.96 1.09 0.98 0.93 0.90 0.87 1.09 1.23 1.17 1.14 1.30 1.46 1.42 1.24 1.11 1.04
0.80 0.79 0.74 0.71 0.71 0.73 0.73 0.75 0.72 0.70 0.68 0.66 0.66 0.69 0.74 0.76 0.80 0.83 0.86 1.00 1.17 1.29 1.36 1.15 1.01 1.06 1.13 1.09 1.12 1.05 0.95 0.92 1.02 1.42 1.65 1.84 1.58 1.48 1.56 1.53 1.41 1.21 1.09
0.73 0.72 0.66 0.61 0.57 0.55 0.55 0.54 0.53 0.56 0.58 0.57 0.60 0.65 0.66 0.67 0.69 0.74 0.81 0.88 1.02 1.20 1.37 1.33 1.14 1.14 1.15 1.12 1.18 1.16 1.00 0.87 0.91 1.36 1.70 2.02 1.99 1.77 1.78 1.62 1.44 1.22 1.09
0.64 0.60 0.57 0.55 0.49 0.49 0.46 0.44 0.46 0.51 0.52 0.51 0.55 0.61 0.66 0.73 0.73 0.75 0.81 0.83 0.92 1.05 1.27 1.37 1.28 1.24 1.28 1.27 1.37 1.27 1.11 1.07 0.87 1.11 1.54 1.88 2.08 2.13 2.21 2.06 1.75 1.39 1.13
0.58 0.60 0.60 0.50 0.42 0.37 0.37 0.36 0.36 0.40 0.41 0.43 0.50 0.57 0.62 0.72 0.78 0.81 0.81 0.83 0.88 1.00 1.15 1.32 1.34 1.34 1.39 1.42 1.45 1.42 1.26 1.11 0.98 0.95 1.39 1.88 2.23 2.27 2.45 2.56 2.25 1.75 1.32
0.54 0.53 0.54 0.52 0.45 0.37 0.33 0.32 0.32 0.35 0.42 0.47 0.50 0.52 0.56 0.65 0.73 0.71 0.68 0.71 0.84 1.03 1.11 1.27 1.34 1.33 1.31 1.42 1.41 1.24 1.15 1.06 0.95 0.91 1.10 1.50 2.18 2.53 2.61 2.68 2.56 2.04 1.56
0.58 0.52 0.51 0.50 0.46 0.35 0.35 0.35 0.33 0.38 0.46 0.51 0.54 0.54 0.51 0.53 0.52 0.53 0.59 0.66 0.76 0.97 1.27 1.46 1.42 1.34 1.21 1.20 1.22 1.17 1.17 1.14 1.10 0.88 0.87 1.17 1.72 2.45 2.70 2.69 2.63 2.05 1.51
0.57 0.51 0.47 0.48 0.47 0.40 0.36 0.34 0.34 0.39 0.50 0.56 0.59 0.59 0.48 0.42 0.49 0.55 0.59 0.65 0.76 0.90 1.15 1.48 1.58 1.36 1.26 1.22 1.26 1.26 1.29 1.33 1.22 0.91 0.90 1.18 1.55 2.20 2.41 2.43 2.33 1.76 1.34
0.55 0.55 0.54 0.52 0.48 0.39 0.36 0.35 0.34 0.40 0.51 0.54 0.55 0.57 0.59 0.56 0.52 0.55 0.60 0.72 0.87 0.99 1.07 1.16 1.46 1.30 1.09 1.07 1.14 1.17 1.25 1.28 1.19 0.99 0.95 1.22 1.53 1.97 1.97 2.04 1.98 1.56 1.23
0.54 0.49 0.47 0.48 0.49 0.46 0.40 0.36 0.34 0.42 0.49 0.50 0.48 0.47 0.46 0.49 0.52 0.63 0.78 1.01 1.14 1.25 1.19 1.32 1.49 1.43 1.27 1.17 1.05 1.06 1.26 1.30 1.26 1.10 0.99 1.16 1.41 1.55 1.65 1.74 1.59 1.43 1.18
0.48 0.41 0.39 0.42 0.43 0.41 0.32 0.29 0.31 0.38 0.45 0.48 0.51 0.52 0.46 0.43 0.53 0.69 0.94 1.22 1.35 1.42 1.29 1.38 1.61 1.64 1.47 1.42 1.37 1.24 1.31 1.31 1.26 1.23 0.99 1.00 1.19 1.22 1.47 1.52 1.38 1.25 1.18